Regional Weather Roundup
Issued by NWS

Home | Current Version | Previous Version | Text Only | Print | Product List | Glossary Off
Versions: 1 2 3 4 5 6 7 8 9 10 11 12 13 14 15 16 17 18 19 20 21 22 23 24 25 26 27 28 29 30 31 32 33 34 35 36 37 38 39 40 41 42 43 44 45 46 47 48 49 50

000
ASUS43 KFSD 200802
RWRSD

WEATHER ROUNDUP FOR SOUTH DAKOTA
NATIONAL WEATHER SERVICE SIOUX FALLS SD
300 AM CDT FRI APR 20 2018

NOTE: "FAIR" INDICATES FEW OR NO CLOUDS BELOW 12,000 FEET WITH NO
SIGNIFICANT WEATHER AND/OR OBSTRUCTIONS TO VISIBILITY.


SDZ001>005-009-010-012>017-200900-
NORTHWEST AND NORTH CENTRAL SOUTH DAKOTA

CITY           SKY/WX    TMP DP  RH WIND       PRES   REMARKS
BUFFALO          N/A     40  29  64 SE15      30.11F
FAITH            N/A     34  28  79 SE16      30.23S WCI  24
MOBRIDGE       MOCLDY    34  26  72 SE7       30.30S WCI  28
$$

SDZ012>016-024>037-041>051-057-063-072>074-200900-
SOUTHWEST AND SOUTH CENTRAL SOUTH DAKOTA

CITY           SKY/WX    TMP DP  RH WIND       PRES   REMARKS
RAPID CTY ARPT CLOUDY    39  30  70 SE10      30.18F
PIERRE         CLOUDY    35  32  88 SE13      30.30S WCI  26
CUSTER         CLOUDY    36  24  62 E8        30.16F
ELLSWORTH AFB  CLOUDY    40  32  72 S14       30.18F
PHILIP         MOCLDY    33  29  85 E10       30.25F WCI  25
PINE RIDGE     CLOUDY    44  27  51 E13G18    30.15F
SPEARFISH      FAIR      45  28  53 SE14G20   30.11F
WINNER         FAIR      36  29  75 SE16      30.29F
$$

SDZ004>011-016>023-039-040-200900-
NORTHEAST SOUTH DAKOTA

CITY           SKY/WX    TMP DP  RH WIND       PRES   REMARKS
ABERDEEN       PTCLDY    29  25  85 S3        30.40F
WATERTOWN      PTCLDY    29  26  89 SE6       30.40F WCI  23
BROOKINGS      PTCLDY    29  25  85 SE6       30.42  WCI  23
SISSETON         N/A     35  28  75 S6        30.40F
$$

SDZ017-020-022-023-036>040-048>070-200900-
SOUTHEAST SOUTH DAKOTA

CITY           SKY/WX    TMP DP  RH WIND       PRES   REMARKS
SIOUX FALLS    CLOUDY    31  22  69 E5        30.43F WCI  26
HURON          CLOUDY    32  27  81 SE8       30.39F WCI  25
CHAMBERLAIN    MOCLDY    34  34  99 SE12      30.33F WCI  26
MITCHELL       MOCLDY    32  27  81 SE12      30.40F WCI  23
YANKTON        MOCLDY    30  26  85 E7        30.41F WCI  23
$$

ABBREVIATIONS USED IN REMARKS
   TC - TEMPERATURE IN CELSIUS
  WCI - WIND CHILL INDEX
   HX - HEAT INDEX
  VSB - VISIBILITY




USA.gov is the U.S. government's official web portal to all federal, state and local government web resources and services.